Terminal Aerodrome Forecast
Issued by NWS Paducah, KY

Home | Current Version | Previous Version | Text Only | Print | Product List | Glossary On
Versions: 1 2 3 4 5 6 7 8 9 10 11 12 13 14 15
000
FTUS43 KPAH 250900 AAA
TAFPAH
TAF AMD
KPAH 250953Z 2510/2606 00000KT 4SM BR BCFG SKC
     FM251300 17004KT P6SM SCT250
     FM260000 VRB03KT P6SM SCT150=

USA.gov is the U.S. government's official web portal to all federal, state and local government web resources and services.